Zurück zum Katalog

CZ-4 DEB

AktivSSO
NORAD 20858·DEBRIS·🇨🇳 China

Gestartet Sep 3, 1990 von Taiyuan Satellite Launch Center

Loading…

Nächste Überflüge (nächste 24 Stunden)

TLE

AktuellSource: Space-Track

Epoche: Sep 14, 2026, 09:17 UTC

1 20858U 90081W   26257.38742951  .00002134  00000-0  46567-3 0  9993
2 20858  98.2386 295.4222 0029191 175.4698 197.1558 14.58624423878906

Verfolge CZ-4 DEB in Echtzeit mit AllMySat

Download on the App Store